[[{"header":{"parameterUnit":"m.s-1","parameterCategory":1,"la1":30.2991,"la2":30.254,"lo1":-89.0895,"lo2":-89.0444,"dy":0.0017,"dx":0.0017,"nx":28,"ny":28,"refTime":"2023-09-15T03:00:00:Z","depth":0,"parameterNumber":2,"parameterNumberName":"U-component_of_WINDS"},"data":[0,0,0,0,0,0,0,0,0,0,0,0,0,0,0,0,0,0,0,0,0,0,0,0,0,0,0,0,0,0,0,0,0,0,0,0,0,0,0,0,0,0,0,0,0,0,0,0,0,0,0,0,0,0,0,0,0,0,0.4963,0.4965,0,0.5066,0.5068,0.5069,0.5131,0.5131,0.5131,0.5131,0.524,0.5243,0.5245,0,0,0,0,0,0,0,0,0,0,0,0,0,0.4823,0.4825,0.4963,0.4965,0.4966,0.5066,0.5068,0.5069,0.5131,0.5131,0.5131,0.5132,0.5239,0.5242,0.5245,0,0,0,0,0,0,0,0,0,0,0,0,0,0.4901,0.4826,0.4963,0.5009,0.5014,0.5066,0.5068,0.507,0.513,0.5131,0.5131,0.5132,0.5238,0.5242,0.5246,0.5262,0,0,0.5258,0.526,0,0,0,0,0,0,0,0,0.4896,0.4906,0.5001,0.5006,0.5011,0.5086,0.5058,0.5134,0.513,0.5086,0.5131,0.5132,0.5189,0.5197,0.5215,0.5267,0.5272,0.5258,0.5261,0.5262,0.5263,0,0,0,0,0,0,0,0.4891,0.4902,0.5004,0.5002,0.5009,0.5025,0.5036,0.5073,0.5134,0.509,0.5095,0.5106,0.5192,0.5211,0.5218,0.5273,0.5258,0.5262,0.5264,0.5266,0.5344,0.5344,0,0,0,0,0,0,0.4878,0.4897,0.5001,0.5007,0.4953,0.5027,0.504,0.5062,0.5134,0.5145,0.5106,0.5109,0.5204,0.5214,0.5222,0.5246,0.5262,0.5266,0.5268,0.5344,0.5344,0.5343,0,0,0,0,0,0,0.4874,0.4886,0.4997,0.4953,0.4969,0.5029,0.5053,0.5064,0.5083,0.5145,0.5157,0.5114,0.5205,0.5217,0.5251,0.5251,0.5268,0.5271,0.5344,0.5344,0.5344,0.5293,0,0,0,0,0,0,0.487,0.4885,0.4891,0.4953,0.4971,0.5023,0.5053,0.5065,0.5089,0.5094,0.5156,0.5167,0.5206,0.5245,0.5255,0.5256,0.5274,0.5345,0.5344,0.5344,0.5295,0.5291,0.5287,0,0,0,0,0,0.4865,0.4873,0.4891,0.4903,0.4979,0.5023,0.5033,0.5077,0.5089,0.5096,0.5136,0.5165,0.5249,0.5248,0.526,0.5262,0.5345,0.5344,0.5344,0.5297,0.5292,0.5287,0,0,0,0,0,0,0.481,0.4882,0.4902,0.4931,0.497,0.5033,0.5043,0.507,0.5108,0.5111,0.5165,0.5179,0.5208,0.5239,0.5237,0.5282,0.53,0.5302,0.526,0.5256,0.5252,0.5244,0.5278,0,0,0,0,0,0.4801,0.483,0.4891,0.4911,0.4929,0.4983,0.5003,0.5034,0.5077,0.5094,0.5137,0.5179,0.5215,0.5237,0.5274,0.53,0.5315,0.5307,0.5303,0.53,0.5301,0.5317,0.5315,0.5341,0.5341,0.5341,0,0,0.4783,0.4826,0.4841,0.4901,0.4935,0.4964,0.4996,0.5026,0.5048,0.5099,0.5134,0.5167,0.5217,0.5248,0.5263,0.5274,0.5297,0.5299,0.5296,0.5299,0.5316,0.5314,0.5311,0.5341,0.5341,0.5341,0,0,0.4766,0.4801,0.4821,0.4854,0.4905,0.494,0.4945,0.5004,0.5027,0.5063,0.5102,0.513,0.519,0.5225,0.525,0.5245,0.5273,0.5256,0.5236,0.5251,0.5249,0.5247,0.5246,0.5244,0.5256,0.5256,0.5256,0,0.4737,0.4782,0.4828,0.4855,0.488,0.4926,0.4947,0.4978,0.5038,0.5055,0.5066,0.5143,0.518,0.5219,0.5218,0.5237,0.5245,0.5249,0.5245,0.5244,0.5243,0.5242,0.5242,0.5254,0.5254,0.5254,0.5254,0,0.4745,0.4775,0.4785,0.4841,0.4868,0.4892,0.4942,0.4963,0.4991,0.5026,0.5062,0.5108,0.5155,0.5166,0.5194,0.5209,0.5215,0.5235,0.5254,0.5237,0.5237,0.5238,0.525,0.5251,0.5252,0.5252,0,0,0.4696,0.4776,0.4779,0.4805,0.4865,0.489,0.4916,0.496,0.4978,0.5018,0.5042,0.5092,0.5111,0.5139,0.5172,0.5185,0.5178,0.5204,0.5206,0.5198,0.5198,0.5183,0.5181,0.5197,0.5198,0.5198,0.5194,0,0.4687,0.4735,0.4777,0.481,0.4839,0.4884,0.4907,0.4946,0.4979,0.5009,0.5047,0.5081,0.5103,0.5121,0.5136,0.5176,0.5179,0.5177,0.5221,0.5222,0.5207,0.5181,0.5165,0.5159,0.5194,0.5194,0.5194,0,0.4683,0.472,0.4756,0.4812,0.4826,0.4846,0.489,0.4918,0.4964,0.4987,0.5019,0.5053,0.5083,0.51,0.5143,0.514,0.5161,0.5183,0.5184,0.519,0.5207,0.5187,0.5159,0.5158,0.5195,0.5195,0.5195,0,0.4643,0.4703,0.4732,0.4753,0.4819,0.4832,0.4861,0.4907,0.4931,0.497,0.4987,0.5029,0.5052,0.5084,0.5129,0.5137,0.5168,0.5188,0.5188,0.5187,0.5193,0.5192,0.5168,0.5206,0.5206,0.5206,0.5206,0,0.4629,0.465,0.4715,0.4733,0.4757,0.4805,0.4828,0.4861,0.4902,0.4927,0.4969,0.4992,0.505,0.508,0.5115,0.5146,0.5156,0.5176,0.5186,0.5173,0.517,0.5187,0.5189,0.5206,0.5206,0.5206,0.5206,0,0.4589,0.4634,0.4669,0.4729,0.4744,0.4759,0.4811,0.4831,0.4866,0.4898,0.4908,0.4964,0.5002,0.5049,0.5103,0.5127,0.5154,0.5168,0.5138,0.5143,0.5141,0.514,0.5127,0.5128,0.5164,0.5164,0.5164,0,0.4577,0.4594,0.4655,0.4675,0.4702,0.4733,0.4758,0.4806,0.483,0.4883,0.4897,0.4938,0.4973,0.5032,0.5078,0.5119,0.5134,0.5126,0.5141,0.5127,0.5134,0.5133,0.5135,0.5123,0.5122,0.5122,0.5121,0,0.4551,0.4572,0.4606,0.4647,0.4674,0.4709,0.4746,0.476,0.4816,0.4841,0.488,0.4907,0.4961,0.5002,0.5049,0.508,0.511,0.5116,0.5119,0.5106,0.5088,0.5097,0.5128,0.5116,0.5117,0.5117,0.5118,0.5118,0.4525,0.4542,0.4588,0.4623,0.4656,0.4689,0.471,0.4748,0.4781,0.4828,0.4855,0.4893,0.4939,0.5005,0.5034,0.5065,0.5076,0.508,0.5081,0.5081,0.5077,0.5082,0.5074,0.5074,0.5074,0.5075,0.5075,0,0.4501,0.4533,0.4565,0.4615,0.4643,0.4668,0.471,0.4732,0.4765,0.4804,0.4838,0.4883,0.4922,0.4971,0.5013,0.5029,0.5044,0.5039,0.5038,0.5045,0.5064,0.5058,0.5026,0.5026,0.5026,0.5026,0.5026,0.5026,0.4492,0.4522,0.4548,0.4595,0.4626,0.4663,0.4685,0.4716,0.4748,0.4796,0.4828,0.4859,0.4903,0.4949,0.4986,0.5,0.5014,0.5004,0.5021,0.5039,0.5043,0.5047,0.5042,0.5007,0.5007,0.4999,0.4999,0.4999]},{"header":{"parameterUnit":"m.s-1","parameterCategory":1,"la1":30.2991,"la2":30.254,"lo1":-89.0895,"lo2":-89.0444,"dy":0.0017,"dx":0.0017,"nx":28,"ny":28,"refTime":"2023-09-15T03:00:00:Z","depth":0,"parameterNumber":3,"parameterNumberName":"V-component_of_WINDS"},"data":[0,0,0,0,0,0,0,0,0,0,0,0,0,0,0,0,0,0,0,0,0,0,0,0,0,0,0,0,0,0,0,0,0,0,0,0,0,0,0,0,0,0,0,0,0,0,0,0,0,0,0,0,0,0,0,0,0,0,0.8257,0.8257,0,0.8255,0.8255,0.8255,0.8256,0.8256,0.8256,0.8256,0.8253,0.8253,0.8253,0,0,0,0,0,0,0,0,0,0,0,0,0,0.8259,0.8259,0.8257,0.8257,0.8257,0.8255,0.8255,0.8255,0.8256,0.8256,0.8256,0.8256,0.8253,0.8253,0.8253,0,0,0,0,0,0,0,0,0,0,0,0,0,0.8257,0.8259,0.8257,0.8257,0.8257,0.8255,0.8255,0.8255,0.8256,0.8256,0.8256,0.8256,0.8253,0.8253,0.8253,0.825,0,0,0.8252,0.8252,0,0,0,0,0,0,0,0,0.8258,0.8257,0.8257,0.8257,0.8257,0.8256,0.8255,0.8253,0.8256,0.8256,0.8256,0.8256,0.8254,0.8254,0.8253,0.825,0.825,0.8252,0.8252,0.8252,0.8252,0,0,0,0,0,0,0,0.8258,0.8257,0.8256,0.8257,0.8257,0.8256,0.8256,0.8254,0.8255,0.8256,0.8256,0.8256,0.8254,0.8253,0.8253,0.825,0.8252,0.8252,0.8252,0.8252,0.8243,0.8242,0,0,0,0,0,0,0.8258,0.8258,0.8256,0.8256,0.8257,0.8256,0.8256,0.8256,0.8255,0.8255,0.8256,0.8256,0.8254,0.8253,0.8253,0.8249,0.8252,0.8252,0.8252,0.8243,0.8243,0.8242,0,0,0,0,0,0,0.8258,0.8258,0.8256,0.8257,0.8257,0.8256,0.8256,0.8256,0.8255,0.8255,0.8255,0.8256,0.8254,0.8253,0.8251,0.8248,0.8252,0.8252,0.8243,0.8243,0.8242,0.824,0,0,0,0,0,0,0.8258,0.8258,0.8257,0.8257,0.8256,0.8254,0.8256,0.8256,0.8255,0.8255,0.8254,0.8254,0.8254,0.8251,0.825,0.8248,0.8252,0.8243,0.8243,0.8242,0.8241,0.824,0.824,0,0,0,0,0,0.8258,0.8257,0.8257,0.8257,0.8256,0.8254,0.8254,0.8254,0.8255,0.8254,0.8253,0.8254,0.8249,0.8251,0.825,0.8248,0.8243,0.8243,0.8243,0.8241,0.824,0.824,0,0,0,0,0,0,0.8258,0.8257,0.8257,0.8256,0.8255,0.8255,0.8254,0.8254,0.8252,0.8253,0.8252,0.8252,0.8249,0.8248,0.825,0.8244,0.8246,0.8246,0.8245,0.8244,0.8244,0.8244,0.8251,0,0,0,0,0,0.8257,0.8257,0.8256,0.8255,0.8254,0.8254,0.8253,0.8253,0.8252,0.8252,0.8251,0.8249,0.8247,0.8246,0.8244,0.824,0.8239,0.8238,0.8238,0.8238,0.8237,0.8234,0.8233,0.8241,0.8241,0.8241,0,0,0.8257,0.8257,0.8256,0.8255,0.8254,0.8252,0.8254,0.8252,0.8251,0.8251,0.8249,0.8248,0.8246,0.8242,0.8241,0.8241,0.8234,0.8237,0.8237,0.8237,0.8233,0.8232,0.8232,0.8241,0.8241,0.8241,0,0,0.8255,0.8255,0.8254,0.8253,0.8251,0.8251,0.825,0.8249,0.8248,0.8246,0.8246,0.8243,0.824,0.8238,0.8237,0.8232,0.8232,0.8232,0.8229,0.8226,0.8225,0.8224,0.8221,0.8221,0.8231,0.8231,0.8231,0,0.8255,0.8253,0.8253,0.8251,0.825,0.825,0.8248,0.8247,0.8245,0.8243,0.8244,0.8239,0.8238,0.8233,0.8232,0.8231,0.823,0.8232,0.8225,0.8224,0.8224,0.8221,0.822,0.8231,0.8231,0.8231,0.8231,0,0.8252,0.825,0.8249,0.8247,0.8245,0.8243,0.8242,0.824,0.824,0.8239,0.8235,0.8233,0.823,0.8229,0.8229,0.8224,0.8224,0.8225,0.8227,0.8223,0.822,0.8219,0.8231,0.8231,0.8231,0.8231,0,0,0.825,0.8247,0.8247,0.8245,0.8243,0.8241,0.8238,0.8235,0.8233,0.8231,0.8228,0.8225,0.8225,0.8223,0.8223,0.822,0.8214,0.8221,0.8221,0.8219,0.8207,0.8206,0.8204,0.8214,0.8214,0.8214,0.8206,0,0.8248,0.8243,0.8242,0.8238,0.8236,0.8235,0.8232,0.823,0.8229,0.8226,0.8224,0.8221,0.8222,0.8221,0.8218,0.8216,0.8212,0.8216,0.821,0.821,0.821,0.8203,0.8203,0.8196,0.8206,0.8205,0.8205,0,0.8244,0.8242,0.8237,0.8234,0.8233,0.823,0.8227,0.8224,0.8221,0.822,0.8217,0.8217,0.8212,0.8214,0.8208,0.8211,0.8208,0.8206,0.8206,0.8205,0.8207,0.8201,0.8194,0.8192,0.8204,0.8204,0.8204,0,0.8243,0.8238,0.8235,0.8233,0.8229,0.8227,0.8225,0.8222,0.822,0.8216,0.8215,0.8211,0.8208,0.8205,0.8202,0.8204,0.8195,0.8197,0.8193,0.8193,0.8191,0.8191,0.8182,0.8191,0.8191,0.8191,0.8191,0,0.824,0.8236,0.8233,0.8231,0.8227,0.8225,0.8221,0.8219,0.8216,0.8212,0.8212,0.8208,0.8206,0.8201,0.82,0.8193,0.8193,0.8191,0.819,0.819,0.8191,0.8188,0.8188,0.8191,0.8191,0.8191,0.8191,0,0.8237,0.8235,0.8231,0.8227,0.8226,0.8223,0.8219,0.8216,0.8214,0.8209,0.8208,0.8205,0.8199,0.8197,0.819,0.8189,0.8182,0.8182,0.8183,0.8182,0.8178,0.8178,0.8166,0.8164,0.8175,0.8175,0.8175,0,0.8235,0.8233,0.8228,0.8226,0.8224,0.822,0.8217,0.8215,0.8212,0.8207,0.8204,0.8199,0.8194,0.8186,0.8182,0.8177,0.8176,0.8172,0.8175,0.8175,0.8175,0.8175,0.8174,0.8172,0.8172,0.8172,0.8172,0,0.8231,0.823,0.8226,0.8222,0.8218,0.8215,0.8211,0.8209,0.8206,0.8202,0.8197,0.8193,0.8186,0.818,0.8174,0.8171,0.817,0.8171,0.8169,0.8169,0.8169,0.8168,0.818,0.8171,0.8171,0.8171,0.8171,0.8171,0.8228,0.8225,0.8221,0.8217,0.8213,0.821,0.8206,0.8203,0.8199,0.8193,0.8191,0.8185,0.818,0.8172,0.8168,0.8163,0.8163,0.8162,0.8161,0.816,0.816,0.8171,0.8162,0.8162,0.8162,0.8162,0.8162,0,0.8223,0.822,0.8216,0.8211,0.8207,0.8206,0.8201,0.8198,0.8192,0.8188,0.8183,0.8176,0.817,0.8165,0.8158,0.8155,0.8154,0.8153,0.8153,0.8152,0.816,0.8161,0.8153,0.8153,0.8153,0.8153,0.8153,0.8153,0.8221,0.8215,0.8213,0.8205,0.8202,0.8196,0.8193,0.8189,0.8185,0.8177,0.8171,0.8168,0.8163,0.8156,0.815,0.8148,0.8146,0.8144,0.8143,0.8151,0.8151,0.8152,0.8154,0.8144,0.8144,0.8135,0.8135,0.8135]}]]